• In Netherlands
  • List of Countries
  • For 7 days
  • Water Temperature
  • Satellite Maps
  • Weather Map
  • Weather Widgets
  • user-avatar
    Login

    Hourly Weather Jambol

    Today, 19 October, Thursday

    Time Temperature Precipitation Wind Pressure Humidity
    00:00 +18°C° 0 mm 1 mps 753 mmHg 50%
    01:00 +16°C° 0 mm 1 mps 753 mmHg 50%
    02:00 +15°C° 0 mm 0 mps 753 mmHg 51%
    03:00 +15°C° 0 mm 0 mps 752 mmHg 51%
    04:00 +14°C° 0 mm 0 mps 752 mmHg 51%
    05:00 +14°C° 0 mm 0 mps 752 mmHg 52%
    06:00 +15°C° 0 mm 0 mps 752 mmHg 51%
    07:00 +16°C° 0 mm 0 mps 752 mmHg 49%
    08:00 +16°C° 0 mm 0 mps 752 mmHg 48%
    09:00 +20°C° 0 mm 1 mps 752 mmHg 43%
    10:00 +23°C° 0 mm 1 mps 752 mmHg 37%
    11:00 +25°C° 0 mm 1 mps 752 mmHg 32%
    12:00 +25°C° 0 mm 1 mps 752 mmHg 30%
    13:00 +26°C° 0 mm 1 mps 752 mmHg 27%
    14:00 +27°C° 0 mm 1 mps 752 mmHg 25%
    15:00 +26°C° 0 mm 1 mps 751 mmHg 28%
    16:00 +25°C° 0 mm 1 mps 751 mmHg 31%
    17:00 +23°C° 0 mm 1 mps 751 mmHg 34%
    18:00 +22°C° 0 mm 1 mps 751 mmHg 37%
    19:00 +21°C° 0 mm 1 mps 751 mmHg 39%
    20:00 +20°C° 0 mm 1 mps 751 mmHg 42%
    21:00 +19°C° 0 mm 1 mps 751 mmHg 43%
    22:00 +19°C° 0 mm 1 mps 752 mmHg 45%
    23:00 +19°C° 0 mm 1 mps 752 mmHg 46%

    Tomorrow, 20 October, Friday

    Time Temperature Precipitation Wind Pressure Humidity
    00:00 +18°C° 0 mm 1 mps 752 mmHg 47%
    01:00 +18°C° 0 mm 1 mps 751 mmHg 48%
    02:00 +16°C° 0 mm 1 mps 751 mmHg 49%
    03:00 +16°C° 0 mm 1 mps 751 mmHg 50%
    04:00 +16°C° 0 mm 1 mps 751 mmHg 51%
    05:00 +15°C° 0 mm 1 mps 751 mmHg 52%
    06:00 +16°C° 0 mm 1 mps 751 mmHg 51%
    07:00 +18°C° 0 mm 1 mps 751 mmHg 51%
    08:00 +18°C° 0 mm 1 mps 752 mmHg 50%
    09:00 +21°C° 0 mm 1 mps 752 mmHg 44%
    10:00 +23°C° 0 mm 1 mps 752 mmHg 39%
    11:00 +25°C° 0 mm 2 mps 752 mmHg 33%
    12:00 +25°C° 0 mm 1 mps 752 mmHg 31%
    13:00 +26°C° 0 mm 1 mps 751 mmHg 29%
    14:00 +27°C° 0 mm 1 mps 751 mmHg 27%
    15:00 +26°C° 0 mm 1 mps 751 mmHg 30%
    16:00 +25°C° 0 mm 1 mps 751 mmHg 33%
    17:00 +24°C° 0 mm 1 mps 751 mmHg 36%
    18:00 +22°C° 0 mm 1 mps 751 mmHg 38%
    19:00 +21°C° 0 mm 1 mps 751 mmHg 41%
    20:00 +20°C° 0 mm 1 mps 751 mmHg 44%
    21:00 +20°C° 0 mm 1 mps 752 mmHg 46%
    22:00 +19°C° 0 mm 1 mps 752 mmHg 47%
    23:00 +19°C° 0 mm 1 mps 752 mmHg 49%

    Day after tomorrow, 21 October, Saturday

    Time Temperature Precipitation Wind Pressure Humidity
    00:00 +19°C° 0 mm 1 mps 752 mmHg 50%
    01:00 +18°C° 0 mm 1 mps 752 mmHg 52%
    02:00 +18°C° 0 mm 1 mps 752 mmHg 53%
    03:00 +18°C° 0 mm 1 mps 752 mmHg 54%
    04:00 +16°C° 0 mm 1 mps 751 mmHg 55%
    05:00 +16°C° 0 mm 1 mps 751 mmHg 56%
    06:00 +18°C° 0 mm 1 mps 752 mmHg 55%
    07:00 +18°C° 0 mm 1 mps 752 mmHg 53%
    08:00 +19°C° 0 mm 1 mps 752 mmHg 52%
    09:00 +21°C° 0 mm 1 mps 752 mmHg 47%
    10:00 +22°C° 0 mm 1 mps 752 mmHg 41%
    11:00 +24°C° 0 mm 2 mps 752 mmHg 36%
    12:00 +25°C° 0 mm 2 mps 752 mmHg 34%
    13:00 +26°C° 0 mm 2 mps 752 mmHg 33%
    14:00 +26°C° 0 mm 2 mps 751 mmHg 31%
    15:00 +25°C° 0 mm 2 mps 751 mmHg 34%
    16:00 +24°C° 0 mm 2 mps 751 mmHg 37%
    17:00 +23°C° 0 mm 2 mps 751 mmHg 40%
    18:00 +22°C° 0 mm 1 mps 751 mmHg 43%
    19:00 +21°C° 0 mm 1 mps 751 mmHg 47%
    20:00 +19°C° 0 mm 1 mps 752 mmHg 50%
    21:00 +19°C° 0 mm 1 mps 752 mmHg 51%
    22:00 +18°C° 0 mm 1 mps 752 mmHg 53%
    23:00 +18°C° 0 mm 1 mps 752 mmHg 54%

    22 October, Sunday

    Time Temperature Precipitation Wind Pressure Humidity
    00:00 +18°C° 0 mm 1 mps 752 mmHg 55%
    01:00 +16°C° 0 mm 1 mps 752 mmHg 57%
    02:00 +16°C° 0 mm 1 mps 752 mmHg 58%
    03:00 +16°C° 0 mm 1 mps 752 mmHg 59%
    04:00 +15°C° 0 mm 1 mps 752 mmHg 61%
    05:00 +15°C° 0 mm 1 mps 752 mmHg 62%
    06:00 +16°C° 0 mm 1 mps 752 mmHg 61%
    07:00 +16°C° 0 mm 1 mps 752 mmHg 60%
    08:00 +16°C° 0 mm 1 mps 752 mmHg 60%
    09:00 +19°C° 0 mm 1 mps 752 mmHg 55%
    10:00 +21°C° 0 mm 1 mps 752 mmHg 50%
    11:00 +23°C° 0 mm 2 mps 753 mmHg 45%
    12:00 +23°C° 0 mm 2 mps 752 mmHg 43%
    13:00 +24°C° 0 mm 2 mps 752 mmHg 42%
    14:00 +24°C° 0 mm 2 mps 751 mmHg 40%
    15:00 +22°C° 0 mm 3 mps 751 mmHg 45%
    16:00 +21°C° 0 mm 3 mps 751 mmHg 50%
    17:00 +20°C° 0 mm 3 mps 751 mmHg 55%
    18:00 +19°C° 0 mm 3 mps 751 mmHg 63%
    19:00 +17°C° 0 mm 3 mps 751 mmHg 72%
    20:00 +16°C° 0 mm 3 mps 751 mmHg 80%
    21:00 +16°C° 0 mm 3 mps 751 mmHg 83%
    22:00 +14°C° 0 mm 3 mps 751 mmHg 86%
    23:00 +15°C° 0 mm 2 mps 751 mmHg 89%

    23 October, Monday

    Time Temperature Precipitation Wind Pressure Humidity
    00:00 +15°C° 0 mm 2 mps 751 mmHg 90%
    01:00 +15°C° 0 mm 2 mps 750 mmHg 91%
    02:00 +14°C° 0 mm 2 mps 750 mmHg 92%
    03:00 +14°C° 0 mm 2 mps 749 mmHg 93%
    04:00 +14°C° 0 mm 2 mps 749 mmHg 93%
    05:00 +14°C° 0 mm 2 mps 749 mmHg 94%
    06:00 +14°C° 0 mm 2 mps 748 mmHg 92%
    07:00 +15°C° 0 mm 2 mps 748 mmHg 89%
    08:00 +15°C° 0 mm 2 mps 748 mmHg 87%
    09:00 +16°C° 0 mm 2 mps 748 mmHg 77%
    10:00 +18°C° 0 mm 3 mps 747 mmHg 68%
    11:00 +19°C° 0 mm 3 mps 747 mmHg 58%
    12:00 +20°C° 0 mm 4 mps 747 mmHg 55%
    13:00 +20°C° 0 mm 4 mps 746 mmHg 52%
    14:00 +21°C° 0 mm 4 mps 746 mmHg 48%
    15:00 +20°C° 0 mm 4 mps 746 mmHg 54%
    16:00 +19°C° 0 mm 4 mps 746 mmHg 60%
    17:00 +18°C° 0 mm 4 mps 746 mmHg 66%
    18:00 +18°C° 0.1 mm 4 mps 746 mmHg 71%
    19:00 +16°C° 0.1 mm 5 mps 746 mmHg 76%
    20:00 +15°C° 0.1 mm 5 mps 746 mmHg 81%
    21:00 +15°C° 0.1 mm 4 mps 746 mmHg 82%
    22:00 +15°C° 0.1 mm 4 mps 746 mmHg 83%
    23:00 +15°C° 0.1 mm 4 mps 747 mmHg 84%

    24 October, Tuesday

    Time Temperature Precipitation Wind Pressure Humidity
    00:00 +15°C° 0.1 mm 4 mps 747 mmHg 84%
    01:00 +15°C° 0.1 mm 4 mps 747 mmHg 84%
    02:00 +15°C° 0.1 mm 5 mps 747 mmHg 84%
    03:00 +15°C° 0.1 mm 5 mps 747 mmHg 83%
    04:00 +14°C° 0.1 mm 5 mps 747 mmHg 83%
    05:00 +14°C° 0.1 mm 5 mps 748 mmHg 82%
    06:00 +14°C° 0.1 mm 6 mps 748 mmHg 80%
    07:00 +14°C° 0.1 mm 6 mps 749 mmHg 79%
    08:00 +14°C° 0.1 mm 6 mps 749 mmHg 77%
    09:00 +15°C° 0 mm 6 mps 750 mmHg 73%
    10:00 +15°C° 0 mm 7 mps 750 mmHg 70%
    11:00 +16°C° 0 mm 7 mps 750 mmHg 67%
    12:00 +16°C° 0 mm 7 mps 750 mmHg 66%
    13:00 +16°C° 0 mm 7 mps 750 mmHg 65%
    14:00 +16°C° 0 mm 7 mps 750 mmHg 64%
    15:00 +16°C° 0 mm 7 mps 751 mmHg 64%
    16:00 +15°C° 0 mm 6 mps 751 mmHg 64%
    17:00 +15°C° 0 mm 6 mps 752 mmHg 64%
    18:00 +14°C° 0 mm 6 mps 752 mmHg 66%
    19:00 +14°C° 0 mm 6 mps 753 mmHg 68%
    20:00 +13°C° 0 mm 6 mps 753 mmHg 70%
    21:00 +11°C° 0 mm 6 mps 753 mmHg 71%
    22:00 +11°C° 0 mm 6 mps 754 mmHg 72%
    23:00 +10°C° 0 mm 5 mps 754 mmHg 74%
    Show more